Current Version              Previous Version:    01  02  03  04  05  06  07  08  09  10  11  12  13  14  15  16  17  18  19  20  21  22  23  24  25  26  27  28  29  30  
   31  32  33  34  35  36  37  38  39  40  41  42  43  44  45  46  47  48  49  50  51  52  53  54  55  56  57  58  59  60  

[Printable]
234
ASUS44 KEWX 180102
RWRTX
SOUTH TEXAS REGIONAL WEATHER ROUNDUP
NATIONAL WEATHER SERVICE AUSTIN/SAN ANTONIO TX
800 PM CDT THU APR 17 2014

NOTE: "FAIR" INDICATED FEW OR NO CLOUDS BELOW 12,000 FEET WITH NO
SIGNIFICANT WEATHER AND/OR OBSTRUCTIONS TO VISIBILITY.

* - THESE STATIONS ARE NOT NWS OR FAA STATIONS...AND ARE NOT SUBJECT
    TO NWS AND FAA QUALITY CONTROL.

TXZ171-172-183>190-180200-
TEXAS HILL COUNTRY AND EDWARDS PLATEAU

CITY           SKY/WX    TMP DP  RH WIND       PRES   REMARKS
JUNCTION       CLOUDY    63  56  78 E13       30.09R
*LLANO         CLOUDY    64  57  77 E5        30.14R
BURNET         CLOUDY    62  57  83 E5        30.14R
*HORSESHOE BAY CLOUDY    61  61 100 CALM      30.10R
*KERRVILLE     CLOUDY    61  57  86 E10       30.09R
*FREDERICKSBRG CLOUDY    60  57  90 E8        30.10R
*ROCKSPRINGS   PTCLDY    68  54  60 E6        30.08R
*BOERNE STAGE  CLOUDY    61  57  88 E6        30.10R
*CASTROVILLE   CLOUDY    65  58  78 E10       30.08R
HONDO          CLOUDY    68  59  73 E12       30.08R
*UVALDE        PTCLDY    70  62  74 E14       30.04R
DEL RIO        CLEAR     79  52  38 E9        29.98R
LAUGHLIN AFB   CLEAR     77  55  45 E14       29.99R
CARRIZO SPRGS    N/A    N/A N/A N/A MISG        N/A
$$

TXZ173-191>194-202-209-217>225-228-180200-
CENTRAL AND SOUTH CENTRAL TEXAS

CITY           SKY/WX    TMP DP  RH WIND       PRES   REMARKS
GEORGETOWN     CLOUDY    64  57  77 CALM      30.12R
AUSTIN/BERGSTM DRIZZLE   62  61  96 N7        30.11R FOG
AUSTIN/MABRY   LGT RAIN  62  60  93 CALM      30.12R FOG
*AUSTIN/EXEC   CLOUDY    63  63 100 CALM      30.12R FOG
*LAGO VISTA    DRIZZLE   62  60  93 CALM      30.13R
SAN MARCOS     CLOUDY    63  57  82 N9        30.12R
NEW BRAUNFELS  CLOUDY    63  32  31 NE7       30.08R FOG
RANDOLPH AFB   CLOUDY    63  61  94 NE6       30.09R FOG
PT SAN ANTONIO CLOUDY    63  61  93 NE8       30.07R
SAN ANTONIO    LGT RAIN  63  62  97 E6        30.09R VSB 3/4
STINSON FIELD  CLOUDY    65  62  90 NE7       30.06S FOG
*PLEASANTON    HVY RAIN  65  61  85 NE10      30.07R
*LA GRANGE     CLOUDY    67  61  80 CALM      30.08R
*GIDDINGS      CLOUDY    65  58  76 CALM      30.13R
*GONZALES      DRIZZLE   64  63  96 E5        30.08R
$$

TXZ163>164-176>182-195>201-210>213-226-227-235-180200-
SOUTHEAST TEXAS

CITY           SKY/WX    TMP DP  RH WIND       PRES   REMARKS
COLLEGE STN    CLOUDY    69  56  62 NE7       30.10R
*BRYAN         CLOUDY    67  57  72 CALM      30.10R
*CALDWELL      CLOUDY    66  59  77 CALM      30.13R
*CROCKETT      CLOUDY    70  57  64 NE5       30.15R
*BRENHAM       MOCLDY    68  59  74 CALM      30.10R
HUNTSVILLE     CLOUDY    68  52  56 E3        30.11R
CONROE         CLOUDY    67  54  63 VRB3      30.11R
HOUSTON BUSH   CLOUDY    66  55  67 SE10      30.10R
HOUSTON HOBBY  CLOUDY    64  54  69 E12       30.10R
*HOUSTON SW AP CLOUDY    64  55  75 E6        30.11R
PEARLAND       CLOUDY    65  54  67 SE10      30.12S
HOUSTON HOOKS  CLOUDY    67  56  67 SE9       30.11R
ELLINGTON FLD  CLOUDY    64  57  77 E12G20    30.12R
SUGAR LAND     CLOUDY    65  55  70 SE9       30.10R
*HOUSTON EXEC  CLOUDY    64  64 100 E7        30.11S
*CLEVELAND MUN MOCLDY    67  58  71 E6        30.11R
*WHARTON       CLOUDY    63  57  81 E8        30.11R
$$

TXZ214>216-236>238-180200-
THE UPPER TEXAS COAST

CITY           SKY/WX    TMP DP  RH WIND       PRES   REMARKS
*ORANGE        CLOUDY    62  54  73 N5        30.14R
PORT ARTHUR    CLOUDY    64  53  67 NE10      30.11R
GALVESTON      CLOUDY    64  58  80 E12       30.11R
ANGLETON       CLOUDY    63  58  83 E8        30.10R
*BAY CITY      CLOUDY    65  59  82 E8        30.09R
PALACIOS       LGT RAIN  63  59  87 E15       30.09R
$$

TXZ229>234-239>247-180200-
TEXAS COASTAL BEND AND RIO GRANDE PLAINS

CITY           SKY/WX    TMP DP  RH WIND       PRES   REMARKS
VICTORIA       CLOUDY    65  61  87 E8        30.08R
*BEEVILLE      CLOUDY    64  64 100 E10       30.05R FOG
ROCKPORT       CLOUDY    65  63  93 E20       30.05S FOG
*PORT ARANSAS  CLOUDY    65  65 100 E16G24    30.04R
*PORT LAVACA   CLOUDY    64  60  86 E16       30.08R
*INGLESIDE     CLOUDY    67  65  94 E10G22    30.04R
CORPUS CHRISTI CLOUDY    68  63  84 E20G25    30.03S
CORPUS NAS     CLOUDY    67  64  90 E17       30.03S
*ROBSTOWN      CLOUDY    69  64  84 E15       30.03R
ALICE          CLOUDY    69  62  78 E14       30.03R
KINGSVILLE NAS CLOUDY    69  64  84 E16       30.02S
COTULLA        CLOUDY    73  59  61 E13       30.02R
*FAITH RANCH   PTCLDY    75  55  50 E12       30.00R
LAREDO         CLOUDY    76  60  57 E12       30.02R
$$

TXZ248>255-180200-
DEEP SOUTH TEXAS

CITY           SKY/WX    TMP DP  RH WIND       PRES   REMARKS
BROWNSVILLE    CLOUDY    70  68  93 NE10      29.99R
PORT ISABEL    CLOUDY    70  67  90 E12       29.98S
*SOUTH PADRE   LGT RAIN  68  68 100 CALM      29.99R
HARLINGEN      LGT RAIN  69  67  93 NE8       30.00R FOG
*HEBBRONVILLE  CLOUDY    72  61  68 E12       30.01R
MCALLEN        CLOUDY    69  66  90 E13       30.00R
*WESLACO       DRIZZLE   67  64  90 NE9       29.99R
FALFURRIAS     CLOUDY    71  65  81 E15G21    30.01S
EDINBURG       CLOUDY    72  64  75 E14       30.01R
*ZAPATA        CLOUDY    75  59  58 E12       29.98R
$$

TXZ213>215-236>238-242>244-246-247-251-254-255-180200-
CMAN STATIONS

STATION/POSITION TIME  TEMP    WIND        PRES    WAVE
                       AIR SEA DIR/SP/G            HT/PER
                 (UTC) (F)     (DEG/KT/KT) (MB)    (FT/S)
SABINE PASS      0000   63 65   50/  8/ 10 1019.3
SEA RIM ST PARK  0000   63      70/  9/ 10 1019.9
NORTH JETTY/GLS  0000   63 68  110/ 16/ 20   N/A
EAGLE POINT      0000   64 59  110/ 16/ 18 1019.6
MORGANS POINT    0000   65 62  110/ 10/ 16 1021.0
MISSION/ARANSAS  0000   65      80/ 17     1018.0
PORT O`CONNOR    0000           70/ 18/ 20   N/A
PORT ARANSAS     0000   65 67   50/ 20/ 22 1016.8
MALAQUITE BEACH  0000   67 68   50/ 20/ 22 1016.2
BAFFIN BAY       0000   67 69   60/ 17/ 20 1016.4
PORT ISABEL      0000   69 67   60/ 10/ 15 1015.5
$$

GMZ080-GMZ150>470-180200-
OFFSHORE BUOY REPORTS

STATION/POSITION TIME  TEMP    WIND        PRES    WAVE
                       AIR SEA DIR/SP/G            HT/PER
                 (UTC) (F)     (DEG/KT/KT) (MB)    (FT/S)
20 E GALVESTON   0100   63 66   70/ 14/ 16 1019.0    4/ 6
35 NE PT MANSFLD 0100   69 69   80/ 17/ 21 1015.9    6/ 6
$$